Regional Weather Roundup
Issued by NWS

Home | Current Version | Previous Version | Graphics & Text | Print | Product List | Glossary On
Versions: 1 2 3 4 5 6 7 8 9 10 11 12 13 14 15 16 17 18 19 20 21 22 23 24 25 26 27 28 29 30 31 32 33 34 35 36 37 38 39 40 41 42 43 44 45 46 47 48 49 50
839
ASUS43 KMKX 072111
RWRWI

WISCONSIN REGIONAL WEATHER ROUNDUP
NATIONAL WEATHER SERVICE MILWAUKEE/SULLIVAN WI
300 PM CST WED DEC 07 2016

NOTE: "FAIR" INDICATES FEW OR NO CLOUDS BELOW 12,000 FEET WITH NO
SIGNIFICANT WEATHER AND/OR OBSTRUCTIONS TO VISIBILITY.

WIZ001-002-006>008-014>016-023>028-072200-
NORTHWEST WISCONSIN

CITY           SKY/WX    TMP DP  RH WIND       PRES   REMARKS
SUPERIOR ARPT  CLOUDY    22  12  65 W16G23    29.90R WCI   8
ASHLAND        CLOUDY    20  12  71 SW17G25   29.85R WCI   5
HAYWARD        CLOUDY    19  10  68 SW12G22   29.89R WCI   7
SIREN          FLURRIES  19  10  66 W16G23    29.96R WCI   5
CUMBERLAND     PTSUNNY   19  10  68 W17G29    29.93S WCI   4
RICE LAKE      PTSUNNY   20  11  68 W14G23    29.96R WCI   7
CHETEK         PTSUNNY   20  11  68 W6G22     29.96R WCI  13
LADYSMITH      FLURRIES  20  12  71 W13G21    29.93R WCI   8
EAU CLAIRE     CLOUDY    20  13  74 W16G25    29.99R WCI   6
MENOMONIE      PTSUNNY   22  14  70 SW16      30.00R WCI   8
NEW RICHMOND   MOSUNNY   20  10  64 W18       30.00R WCI   5
OSCEOLA        PTSUNNY   21  10  61 W22G29    30.04R WCI   5
$$

WIZ003>005-009-010-017-018-072200-
NORTH CENTRAL WISCONSIN

CITY           SKY/WX    TMP DP  RH WIND       PRES   REMARKS
MANITOWISH WTR FLURRIES  17  11  78 W14G20    29.79R WCI   3
ARBOR VITAE    LGT SNOW  19  13  77 W13G21    29.80R WCI   6
WOODRUFF       LGT SNOW  19  13  77 W13G21    29.80R WCI   6
RHINELANDER    LGT SNOW  20  13  74 W17G26    29.82R WCI   5
EAGLE RIVER    LGT SNOW  19  11  72 W15G23    29.79R WCI   5
LAND O LAKES   LGT SNOW  19  12  75 W8G20     29.79R WCI   8
PHILLIPS       FLURRIES  18  12  77 W14G21    29.84R WCI   4
TOMAHAWK       LGT SNOW  19  13  77 W12G17    29.86R WCI   6
MEDFORD        LGT SNOW  17  12  79 W13G22    29.89R WCI   4
MERRILL        LGT SNOW  19  13  77 W17G23    29.89R WCI   4
$$

WIZ029-030-035-036-043>047-072200-
CENTRAL WISCONSIN

CITY           SKY/WX    TMP DP  RH WIND       PRES   REMARKS
WAUSAU         CLOUDY    20  12  71 W18G29    29.90R WCI   5
MOSINEE        FLURRIES  19  12  73 W18G28    29.92R WCI   4
MARSHFIELD     CLOUDY    20  11  68 W16G24    29.93R WCI   6
STEVENS POINT  CLOUDY    20  11  68 SW17G23   29.94S WCI   6
WAUPACA        CLOUDY    26  16  65 W13G22    29.96R WCI  15
WAUTOMA        CLOUDY    22  14  71 W15       29.98R WCI   9
WISC RAPIDS    CLOUDY    22  13  68 W15G21    29.97R WCI   9
CAMP DOUGLAS   PTSUNNY   21  12  68 W16       30.01R WCI   7
$$

WIZ011>013-019>022-031-037>040-048>050-072200-
NORTHEAST WISCONSIN

CITY           SKY/WX    TMP DP  RH WIND       PRES   REMARKS
ANTIGO         FLURRIES  18  11  76 W23G29    29.86R WCI   0
SHAWANO        CLOUDY    27  14  60 W13G24    29.91R WCI  16
OCONTO         MOCLDY    26  14  60 W15G28    29.90R WCI  13
STURGEON BAY   PTCLDY    27  16  63 W18G25    29.88R WCI  14
GREEN BAY      MOCLDY    28  17  63 SW21G26   29.92S WCI  15
MANITOWOC      MOCLDY    25  17  72 W15G21    29.94R WCI  13
APPLETON       MOCLDY    25  12  58 W17G25    29.92S WCI  11
CLINTONVILLE   CLOUDY    27  14  59 W15G23    29.92R WCI  15
OSHKOSH        PTCLDY    23  14  68 W12G22    29.95S WCI  12
$$

WIZ032>034-041-042-053>061-072200-
SOUTHWEST WISCONSIN

CITY           SKY/WX    TMP DP  RH WIND       PRES   REMARKS
LA CROSSE      CLOUDY    23  12  62 W16       30.08R WCI  10
SPARTA         CLOUDY    21  13  71 W8G21     30.04S WCI  11
VIROQUA        CLOUDY    18  12  77 W14       30.03S WCI   4
BOSCOBEL       CLOUDY    22  12  65 W14G20    30.11R WCI   9
PRAIRIE DU CHI FLURRIES  21  12  67 W12G23    30.13R WCI   9
PLATTEVILLE    CLOUDY    20  14  78 W14G21    30.10R WCI   7
$$

WIZ056-057-062-063-064-067-068-072200-
SOUTH CENTRAL WISCONSIN

CITY           SKY/WX    TMP DP  RH WIND       PRES   REMARKS
REEDSBURG      MOSUNNY   20  12  71 W15G25    30.03R WCI   7
BARABOO/DELLS  PTSUNNY   21  12  68 W13G20    30.02R WCI   9
LONE ROCK      CLOUDY    22  12  65 W17       30.08R WCI   8
MINERAL POINT  PTSUNNY   21  14  73 W13G18    30.06R WCI   9
MADISON        PTSUNNY   22  12  65 VRB7G18   30.04R WCI  13
MIDDLETON      MOSUNNY   25  16  68 W14       30.04  WCI  13
WATERTOWN      CLOUDY    22  16  76 SW12      30.02R WCI  11
MONROE         PTSUNNY   21  14  73 W21G26    30.06R WCI   6
JANESVILLE     PTSUNNY   25  16  68 W14G20    30.06R WCI  13
$$

WIZ051-052-058>065-066-070>072-072200-
SOUTHEAST WISCONSIN

CITY           SKY/WX    TMP DP  RH WIND       PRES   REMARKS
MILWAUKEE      PTSUNNY   27  15  61 W13G24    30.02R WCI  16
WAUKESHA       MOSUNNY   23  14  68 W17G23    30.02R WCI   9
MILWAUKEE/TIMM SUNNY     27  12  54 W14G25    30.01R WCI  15
RACINE         MOSUNNY   27  16  63 W17G23    30.04R WCI  14
BURLINGTON     PTSUNNY   24  17  74 W14G20    30.04S WCI  12
KENOSHA        MOSUNNY   27  18  69 W17G25    30.03R WCI  14
FOND DU LAC    MOSUNNY   23  12  62 W13G23    29.98R WCI  11
SHEBOYGAN      PTCLDY    24  14  65 W20G25    29.96R WCI  10
WEST BEND      NOT AVBL
JUNEAU         MOSUNNY   21  13  73 SW16G23   30.02R WCI   7
$$

LSZ147-162-072200-
LAKE SUPERIOR

STATION/POSITION TIME  TEMP    WIND        PRES    WAVE
                       AIR SEA DIR/SP/G            HT/PER
                 (UTC) (F)     (DEG/KT/KT) (MB)    (FT/S)
DEVILS ISLAND    2100   25     250/ 31/ 39 1009.4R
PORT WING        2040   22     230/ 14/ 21 1011.2R
SAXON HARBOR     2030   21     210/ 10/ 20 1010.5R
$$

LMZ867-665-643>646-072200-
LAKE MICHIGAN

STATION/POSITION TIME  TEMP    WIND        PRES    WAVE
                       AIR SEA DIR/SP/G            HT/PER
                 (UTC) (F)     (DEG/KT/KT) (MB)    (FT/S)
CHAMBERS ISLAND  2040   27     220/ 13/ 21 1010.5R
NORTHPORT PIER   2046   27     240/ 10/ 22 1010.5S
SISTER BAY       2038   31     290/ 25/ 30   N/A
ALGOMA LAKESHORE 2051          270/ 15/ 23   N/A
KEWAUNEE LAKESHO 2048   26     260/ 17/ 21 1012.5R
SHEBOYGAN LAKESH 2100   24     250/ 17/ 19 1015.5R
PORT WASHINGTON  2040   26     260/ 11/ 20 1016.6R
MILWAUKEE LAKESH 2050   26     240/ 17/ 20   N/A
KENOSHA   LAKESH 2100   28     260/ 15/ 22 1017.6
$$

TC  - TEMPERATURE IN CELSIUS
VSB - VISIBILITY IN STATUTE MILES
WCI - WIND CHILL INDEX
HX  - HEAT INDEX





USA.gov is the U.S. government's official web portal to all federal, state and local government web resources and services.